Showing default

KUIPER-00606, 69289

Orbit data source: Space-Track

KUIPER-00606, 69289 is a payload satellite owned by Kuiper Systems (US) in LEO that was launched on Fri, 29 May 2026 UTC via an ATLAS V 551 launch vehicle from the Air Force Eastern Test Range (AFETR). Payload-class satellites include a variety of spacecraft equipped with specific instruments for various scientific and technological missions. These include communications satellites like Starlink; space stations such as the ISS; scientific satellites like the Hubble; Earth observation satellites from companies like Planet Labs, Umbra, and HawkEye 360; GPS; miniature CubeSats for education and research; and military/defense satellites.

Loading next visibility...
Identifier
69289, 2026-118Y
Orbit
LEO
Country
Flag of USUS
Related business
Manufacturer
Kuiper Systems
Mission
Operational spacecraft
Bus & Motor
KUIPER, Unknown motor
Mass
~490 kg wet, ~490 kg dry
Launch date (UTC)
2026-05-29 (3 weeks ago)
Launch vehicle
ATLAS V 551
Launch site
Air Force Eastern Test Range (AFETR)
Object type
Payload
Rocket body
Debris
Shape & HBR
Unknown
Radar Cross Section
Large (>1 m²)

Expand to show TLE details & history
Last TLE update: 19 hours ago

TLE from 19 hours ago
0 KUIPER-00606
1 69289U 26118Y   26171.05077206  .00020247  00000-0  54626-3 0  9997
2 69289  51.8700  39.3740 0004536 165.0419 195.0703 15.37760304  4428
Epoch: 2026-06-20T01:13Z
TLE epoch observation values (Epoch: 2026-06-20T01:13:06.705Z)
Latitude
-0.00003°
Longitude
112.82508°
Altitude
456.488 km
Speed
7.638 km/s
True Right ascension
02h 37m 29s
True Declination
0° 00' 00"
Sunlit
Object was in daylight at epoch
Visualization orbit readout
Latitude
Unknown
Longitude
Unknown
Altitude
Unknown
Speed
Unknown
Apparent Right ascension
Unknown
Apparent Declination
Unknown
Sunlit
N/A
Visualization observer readout
Local Sidereal Time
07:13:54
Azimuth
Unknown
Elevation
Unknown
Doppler factor
Unknown
Orbital elements
Apogee altitude
456.3 km
Perigee altitude
450.103 km
Semi-major axis
6,831.338 km
Eccentricity
0.00045
Inclination
51.87°
RAAN
39.374°
Arg. of periapsis
165.0419°
True anomaly
195.05679°
Mean anomaly
195.0703°
Eccentric anomaly
195.06355°
Mean motion
3.84401 °/min
Orbital period
93.65 mins
BSTAR
0.00054626
Loading maneuver chart data...
Computing Atmospheric mass density...
Loading historical data...
Loading historical data...
Loading historical data...
Loading historical data...
Loading historical data...
Loading historical data...
Loading historical data...

Documentation

Showing up to 5 results
|